When you browse on this site, cookies collect data to enhance your experience and personalize the content and advertising you see.
Visit our Privacy Policy to learn more. By continuing to use the site, you agree to this use of cookies and data.
  • In Hungary
  • List of Countries
  • For 7 days
  • Water Temperature
  • Satellite Maps
  • Weather Map
  • News
  • Weather Widgets
  • user-avatar
    Login

    Hourly Weather Potashnya

    Today, 17 July, Wednesday

    Time Temperature Precipitation Wind Pressure Humidity
    00:00 +15°C° 0 mm 2 mps 741 mmHg 85%
    01:00 +14°C° 0 mm 3 mps 741 mmHg 88%
    02:00 +13°C° 0 mm 3 mps 741 mmHg 89%
    03:00 +13°C° 0.3 mm 3 mps 741 mmHg 90%
    04:00 +13°C° 0.3 mm 3 mps 741 mmHg 91%
    05:00 +13°C° 0.3 mm 3 mps 741 mmHg 93%
    06:00 +14°C° 0 mm 3 mps 741 mmHg 87%
    07:00 +15°C° 0 mm 4 mps 741 mmHg 81%
    08:00 +17°C° 0 mm 4 mps 741 mmHg 75%
    09:00 +18°C° 0 mm 4 mps 741 mmHg 70%
    10:00 +19°C° 0 mm 4 mps 741 mmHg 65%
    11:00 +20°C° 0 mm 4 mps 741 mmHg 60%
    12:00 +20°C° 0.5 mm 4 mps 740 mmHg 63%
    13:00 +20°C° 0.5 mm 4 mps 740 mmHg 65%
    14:00 +21°C° 0.5 mm 4 mps 740 mmHg 68%
    15:00 +20°C° 0.6 mm 4 mps 740 mmHg 70%
    16:00 +20°C° 0.6 mm 4 mps 740 mmHg 72%
    17:00 +19°C° 0.6 mm 4 mps 740 mmHg 75%
    18:00 +18°C° 0.5 mm 3 mps 740 mmHg 80%
    19:00 +17°C° 0.5 mm 3 mps 740 mmHg 85%
    20:00 +15°C° 0.5 mm 2 mps 739 mmHg 89%
    21:00 +15°C° 0 mm 2 mps 740 mmHg 91%
    22:00 +14°C° 0 mm 2 mps 740 mmHg 93%
    23:00 +13°C° 0 mm 2 mps 740 mmHg 94%

    Tomorrow, 18 July, Thursday

    Time Temperature Precipitation Wind Pressure Humidity
    00:00 +13°C° 0 mm 2 mps 740 mmHg 95%
    01:00 +12°C° 0 mm 2 mps 740 mmHg 95%
    02:00 +11°C° 0 mm 3 mps 740 mmHg 96%
    03:00 +11°C° 0 mm 3 mps 740 mmHg 96%
    04:00 +11°C° 0 mm 3 mps 740 mmHg 97%
    05:00 +11°C° 0 mm 3 mps 740 mmHg 97%
    06:00 +12°C° 0 mm 3 mps 741 mmHg 93%
    07:00 +14°C° 0 mm 3 mps 741 mmHg 88%
    08:00 +15°C° 0 mm 4 mps 741 mmHg 83%
    09:00 +18°C° 0.1 mm 4 mps 741 mmHg 77%
    10:00 +19°C° 0.1 mm 5 mps 742 mmHg 72%
    11:00 +20°C° 0.1 mm 5 mps 742 mmHg 66%
    12:00 +20°C° 0.1 mm 5 mps 742 mmHg 65%
    13:00 +21°C° 0.1 mm 6 mps 742 mmHg 64%
    14:00 +21°C° 0.1 mm 6 mps 742 mmHg 63%
    15:00 +21°C° 0 mm 5 mps 742 mmHg 65%
    16:00 +21°C° 0 mm 5 mps 742 mmHg 67%
    17:00 +20°C° 0 mm 5 mps 742 mmHg 69%
    18:00 +19°C° 0 mm 4 mps 743 mmHg 76%
    19:00 +18°C° 0 mm 3 mps 743 mmHg 82%
    20:00 +16°C° 0 mm 3 mps 743 mmHg 89%
    21:00 +16°C° 0 mm 3 mps 743 mmHg 91%
    22:00 +14°C° 0 mm 3 mps 744 mmHg 93%
    23:00 +14°C° 0 mm 3 mps 744 mmHg 95%

    Day after tomorrow, 19 July, Friday

    Time Temperature Precipitation Wind Pressure Humidity
    00:00 +13°C° 0 mm 3 mps 744 mmHg 95%
    01:00 +13°C° 0 mm 3 mps 744 mmHg 95%
    02:00 +13°C° 0 mm 3 mps 744 mmHg 95%
    03:00 +13°C° 0 mm 3 mps 744 mmHg 95%
    04:00 +13°C° 0 mm 3 mps 745 mmHg 95%
    05:00 +12°C° 0 mm 3 mps 745 mmHg 94%
    06:00 +14°C° 0 mm 3 mps 745 mmHg 89%
    07:00 +17°C° 0 mm 3 mps 745 mmHg 83%
    08:00 +19°C° 0 mm 3 mps 746 mmHg 77%
    09:00 +20°C° 0 mm 3 mps 746 mmHg 71%
    10:00 +22°C° 0 mm 3 mps 746 mmHg 65%
    11:00 +24°C° 0 mm 3 mps 746 mmHg 59%
    12:00 +25°C° 0.3 mm 3 mps 746 mmHg 58%
    13:00 +25°C° 0.3 mm 3 mps 746 mmHg 57%
    14:00 +25°C° 0.3 mm 3 mps 746 mmHg 56%
    15:00 +25°C° 0.3 mm 3 mps 746 mmHg 58%
    16:00 +25°C° 0.3 mm 3 mps 746 mmHg 59%
    17:00 +25°C° 0.3 mm 2 mps 746 mmHg 60%
    18:00 +23°C° 0.1 mm 2 mps 746 mmHg 66%
    19:00 +20°C° 0.1 mm 2 mps 746 mmHg 72%
    20:00 +20°C° 0.1 mm 1 mps 746 mmHg 78%
    21:00 +19°C° 0 mm 1 mps 746 mmHg 80%
    22:00 +17°C° 0 mm 2 mps 747 mmHg 82%
    23:00 +17°C° 0 mm 2 mps 747 mmHg 84%

    20 July, Saturday

    Time Temperature Precipitation Wind Pressure Humidity
    00:00 +16°C° 0 mm 2 mps 747 mmHg 85%
    01:00 +16°C° 0 mm 2 mps 747 mmHg 87%
    02:00 +15°C° 0 mm 2 mps 747 mmHg 88%
    03:00 +15°C° 0 mm 2 mps 747 mmHg 88%
    04:00 +15°C° 0 mm 1 mps 747 mmHg 88%
    05:00 +15°C° 0 mm 1 mps 747 mmHg 87%
    06:00 +18°C° 0 mm 1 mps 747 mmHg 81%
    07:00 +20°C° 0 mm 1 mps 747 mmHg 75%
    08:00 +22°C° 0 mm 1 mps 748 mmHg 69%
    09:00 +24°C° 0 mm 1 mps 748 mmHg 64%
    10:00 +25°C° 0 mm 1 mps 748 mmHg 59%
    11:00 +26°C° 0 mm 1 mps 748 mmHg 53%
    12:00 +27°C° 0 mm 1 mps 748 mmHg 52%
    13:00 +27°C° 0 mm 1 mps 748 mmHg 52%
    14:00 +27°C° 0 mm 1 mps 748 mmHg 51%
    15:00 +27°C° 0 mm 1 mps 748 mmHg 52%
    16:00 +27°C° 0 mm 1 mps 748 mmHg 54%
    17:00 +26°C° 0 mm 1 mps 748 mmHg 56%
    18:00 +25°C° 0 mm 1 mps 748 mmHg 61%
    19:00 +23°C° 0 mm 1 mps 748 mmHg 67%
    20:00 +21°C° 0 mm 1 mps 748 mmHg 72%
    21:00 +21°C° 0 mm 1 mps 748 mmHg 73%
    22:00 +20°C° 0 mm 1 mps 748 mmHg 75%
    23:00 +19°C° 0 mm 1 mps 748 mmHg 76%

    21 July, Sunday

    Time Temperature Precipitation Wind Pressure Humidity
    00:00 +17°C° 0 mm 0 mps 748 mmHg 78%
    01:00 +16°C° 0 mm 0 mps 748 mmHg 80%
    02:00 +16°C° 0 mm 0 mps 748 mmHg 81%
    03:00 +16°C° 0 mm 0 mps 748 mmHg 81%
    04:00 +16°C° 0 mm 0 mps 748 mmHg 82%
    05:00 +16°C° 0 mm 0 mps 748 mmHg 82%
    06:00 +19°C° 0 mm 1 mps 748 mmHg 77%
    07:00 +21°C° 0 mm 1 mps 748 mmHg 71%
    08:00 +23°C° 0 mm 1 mps 748 mmHg 66%
    09:00 +24°C° 0 mm 1 mps 749 mmHg 60%
    10:00 +26°C° 0 mm 1 mps 749 mmHg 55%
    11:00 +27°C° 0 mm 1 mps 749 mmHg 49%
    12:00 +28°C° 0 mm 1 mps 749 mmHg 47%
    13:00 +28°C° 0 mm 1 mps 748 mmHg 44%
    14:00 +29°C° 0 mm 1 mps 748 mmHg 42%
    15:00 +29°C° 0 mm 1 mps 748 mmHg 44%
    16:00 +28°C° 0 mm 1 mps 748 mmHg 45%
    17:00 +28°C° 0 mm 1 mps 748 mmHg 46%
    18:00 +26°C° 0 mm 1 mps 748 mmHg 53%
    19:00 +24°C° 0 mm 1 mps 748 mmHg 59%
    20:00 +22°C° 0 mm 1 mps 748 mmHg 65%
    21:00 +22°C° 0 mm 1 mps 748 mmHg 65%
    22:00 +22°C° 0 mm 1 mps 748 mmHg 66%
    23:00 +21°C° 0 mm 1 mps 748 mmHg 67%

    22 July, Monday

    Time Temperature Precipitation Wind Pressure Humidity
    00:00 +21°C° 0 mm 1 mps 748 mmHg 69%
    01:00 +20°C° 0 mm 1 mps 748 mmHg 71%
    02:00 +18°C° 0 mm 0 mps 747 mmHg 73%
    03:00 +20°C° 0.1 mm 1 mps 747 mmHg 75%
    04:00 +20°C° 0.1 mm 1 mps 747 mmHg 77%
    05:00 +20°C° 0.1 mm 1 mps 747 mmHg 79%
    06:00 +21°C° 0.2 mm 1 mps 747 mmHg 79%
    07:00 +21°C° 0.2 mm 1 mps 747 mmHg 80%
    08:00 +21°C° 0.2 mm 2 mps 747 mmHg 80%
    09:00 +23°C° 0.4 mm 2 mps 747 mmHg 76%
    10:00 +24°C° 0.4 mm 2 mps 747 mmHg 73%
    11:00 +25°C° 0.4 mm 3 mps 747 mmHg 69%
    12:00 +26°C° 0.5 mm 3 mps 747 mmHg 67%
    13:00 +27°C° 0.5 mm 2 mps 747 mmHg 64%
    14:00 +27°C° 0.5 mm 2 mps 746 mmHg 62%
    15:00 +27°C° 0.1 mm 2 mps 746 mmHg 63%
    16:00 +27°C° 0.1 mm 2 mps 746 mmHg 63%
    17:00 +27°C° 0.1 mm 2 mps 746 mmHg 64%
    18:00 +25°C° 0.2 mm 2 mps 746 mmHg 70%
    19:00 +24°C° 0.2 mm 2 mps 746 mmHg 77%
    20:00 +21°C° 0.2 mm 2 mps 745 mmHg 84%
    21:00 +21°C° 0.4 mm 2 mps 745 mmHg 86%
    22:00 +20°C° 0.4 mm 2 mps 745 mmHg 88%
    23:00 +19°C° 0.4 mm 2 mps 745 mmHg 90%
    Show more